Weather in Novonikolayevka

Russia / Tomsk District     57°17′57″N   85°51′41″E
temp.,
°C
wind,
m/s
gust,
m/s
humid.,
%
clouds,
%
prec.,
mm/h
press.,
hPa
HPBL,
m
9 may, sun
sun901:00+1wnw27875 0.0 1017182
04:000nw25945 0.0 1018131
07:00+2nw25835 0.0 1019226
10:00+7nnw355571 0.0 10191384
13:00+9n454799 0.0 10201813
16:00+9n464898 0.0 10211518
19:00+10nne365394 0.0 10221200
22:00+5nne28785 0.0 1024157
10 may, mon
mon1001:00+2n26945 0.0 1025131
04:00+1nnw22955 0.0 102523
07:00+3nne258528 0.0 1026174
10:00+9ne346579 0.0 10261034
13:00+10ne3355100 0.0 10251433
16:00+13ne244473 0.0 10241818
19:00+11nne4757100 0.0 1023868
22:00+7ne277915 0.0 1023130
11 may, tue
tue1101:00+5nne259062 0.0 1023100
04:00+7nne3118099 0.0 1022356
07:00+7nne41077100 0.0 1022497
10:00+11nne475611 0.0 1022795
13:00+13nne554499 0.0 10211924
16:00+14n553789 0.0 10202262
19:00+12n56475 0.0 10211401
22:00+6n310665 0.0 1022437
12 may, wed
wed1201:00+3nnw29785 0.0 1022206
04:00+2nnw26855 0.0 1022131
07:00+4n26788 0.0 1022219
10:00+9nne335980 0.0 1021673
13:00+13nne224265 0.0 10201869
16:00+15e324053 0.0 10192044
19:00+14e22445 0.0 10191600
22:00+8se22698 0.0 102012
13 may, thu
thu1301:00+7se23805 0.0 102050
04:00+6sse22855 0.0 102018
07:00+8sse12755 0.0 102093
10:00+14s22495 0.0 10191483
13:00+17ssw233585 0.0 10172268
16:00+18w443035 0.0 10142517
19:00+17w3638100 0.0 10131570
22:00+11wnw41080100 0.7 1013709